Weather History for KAFJ - December, 2012

Change the Weather History Date:

Tuesday, December 4, 2012

  Actual Average Record
Temperature  
Mean Temperature 54 °F -  
Max Temperature 64 °F 43 °F 68 °F (2001)
Min Temperature 44 °F 27 °F 6 °F (2002)
Degree Days  
Heating Degree Days 11    
Growing Degree Days 4 (Base 50)    
Moisture  
Dew Point 50 °F    
Average Humidity 83    
Maximum Humidity 100    
Minimum Humidity 64    
Precipitation  
Precipitation 0.00 in - - ()
Sea Level Pressure  
Sea Level Pressure 30.12 in    
Wind  
Wind Speed 6 mph (SSW)    
Max Wind Speed 17 mph    
Max Gust Speed 26 mph    
Visibility 10 miles    
Events      
Averages and records for this station are not official NWS values.
T = Trace of Precipitation, MM = Missing Value Source: NWS Daily Summary

Daily Weather History Graph

Daily Weather History Graph

Search for Another Location

Airport or City:

Trip Planner

Search our weather history database for the weather conditions in past years. The results will help you decide how hot, cold, wet, or windy it might be!

Date:

Astronomy

Dec. 04, 2012 Rise Set
Actual Time 7:27 AM EST 4:55 PM EST
Civil Twilight 6:57 AM EST 5:25 PM EST
Nautical Twilight 6:23 AM EST 5:59 PM EST
Astronomical Twilight 5:50 AM EST 6:32 PM EST
Moon 10:41 PM EST (12/4) 11:20 AM EST (12/4)
Length of Visible Light 10h 28m
Length of Day
9h 27m
Waning Gibbous, 69% of the Moon is Illuminated
Dec 4
Waning Gibbous
Dec 6
Last Quarter
Dec 13
New
Dec 20
First Quarter
Dec 28
Full

Hourly Weather History & Observations

Time (EST) Temp. Windchill Dew Point Humidity Pressure Visibility Wind Dir Wind Speed Gust Speed Precip Events Conditions
12:15 AM 53.6 °F - 51.8 °F 94% 30.17 in 10.0 mi South 4.6 mph - N/A   Clear
12:35 AM 53.6 °F - 51.8 °F 94% 30.17 in 10.0 mi SSW 3.5 mph - N/A   Clear
1:15 AM 53.6 °F - 51.8 °F 94% 30.17 in 10.0 mi South 3.5 mph - N/A   Clear
1:35 AM 51.8 °F - 50.0 °F 94% 30.17 in 10.0 mi South 4.6 mph - N/A   Clear
1:55 AM 51.8 °F - 50.0 °F 94% 30.18 in 10.0 mi South 4.6 mph - N/A   Clear
2:15 AM 51.8 °F - 50.0 °F 94% 30.17 in 10.0 mi South 4.6 mph - N/A   Clear
2:35 AM 51.8 °F - 51.8 °F 100% 30.17 in 10.0 mi South 5.8 mph - N/A   Clear
2:55 AM 53.6 °F - 51.8 °F 94% 30.18 in 10.0 mi South 4.6 mph - N/A   Clear
3:15 AM 51.8 °F - 50.0 °F 94% 30.18 in 10.0 mi Calm Calm - N/A   Clear
3:55 AM 48.2 °F - 48.2 °F 100% 30.18 in 2.0 mi Calm Calm - N/A   Overcast
4:15 AM 48.2 °F - 48.2 °F 100% 30.17 in 6.0 mi South 3.5 mph - N/A   Scattered Clouds
4:35 AM 50.0 °F - 48.2 °F 94% 30.17 in 10.0 mi SSW 3.5 mph - N/A   Clear
4:55 AM 48.2 °F - 48.2 °F 100% 30.17 in 10.0 mi South 4.6 mph - N/A   Clear
5:15 AM 51.8 °F - 48.2 °F 88% 30.17 in 10.0 mi Calm Calm - N/A   Clear
5:35 AM 48.2 °F - 46.4 °F 93% 30.16 in 8.0 mi Calm Calm - N/A   Clear
5:55 AM 48.2 °F - 46.4 °F 93% 30.16 in 10.0 mi SSW 3.5 mph - N/A   Clear
6:15 AM 48.2 °F - 46.4 °F 93% 30.17 in 10.0 mi SSW 4.6 mph - N/A   Clear
6:35 AM 51.8 °F - 48.2 °F 88% 30.17 in 10.0 mi South 4.6 mph - N/A   Clear
6:55 AM 50.0 °F - 46.4 °F 87% 30.17 in 10.0 mi Calm Calm - N/A   Clear
7:15 AM 50.0 °F - 46.4 °F 87% 30.17 in 10.0 mi South 3.5 mph - N/A   Clear
7:35 AM 50.0 °F - 46.4 °F 87% 30.17 in 10.0 mi South 5.8 mph - N/A   Clear
7:55 AM 51.8 °F - 48.2 °F 88% 30.17 in 10.0 mi SSW 5.8 mph - N/A   Clear
8:15 AM 51.8 °F - 48.2 °F 88% 30.17 in 10.0 mi SSW 4.6 mph - N/A   Clear
8:35 AM 53.6 °F - 48.2 °F 82% 30.18 in 10.0 mi South 4.6 mph - N/A   Clear
8:55 AM 55.4 °F - 50.0 °F 82% 30.17 in 10.0 mi South 3.5 mph - N/A   Partly Cloudy
9:15 AM 57.2 °F - 50.0 °F 77% 30.17 in 10.0 mi South 8.1 mph - N/A   Mostly Cloudy
9:35 AM 57.2 °F - 50.0 °F 77% 30.17 in 10.0 mi South 8.1 mph - N/A   Mostly Cloudy
9:55 AM 60.8 °F - 51.8 °F 72% 30.17 in 10.0 mi South 8.1 mph - N/A   Partly Cloudy
10:15 AM 60.8 °F - 51.8 °F 72% 30.16 in 10.0 mi South 8.1 mph - N/A   Scattered Clouds
10:35 AM 62.6 °F - 51.8 °F 68% 30.15 in 10.0 mi SSW 13.8 mph 19.6 mph N/A   Mostly Cloudy
10:55 AM 62.6 °F - 51.8 °F 68% 30.15 in 10.0 mi SSW 9.2 mph 18.4 mph N/A   Overcast
11:15 AM 64.4 °F - 51.8 °F 64% 30.14 in 10.0 mi SSW 11.5 mph 18.4 mph N/A   Mostly Cloudy
11:35 AM 64.4 °F - 51.8 °F 64% 30.12 in 10.0 mi SSW 13.8 mph - N/A   Mostly Cloudy
11:55 AM 64.4 °F - 51.8 °F 64% 30.11 in 10.0 mi SSW 12.7 mph 19.6 mph N/A   Mostly Cloudy
12:15 PM 64.4 °F - 51.8 °F 64% 30.10 in 10.0 mi SSW 10.4 mph 23.0 mph N/A   Mostly Cloudy
12:35 PM 64.4 °F - 51.8 °F 64% 30.10 in 10.0 mi SW 13.8 mph 23.0 mph N/A   Mostly Cloudy
1:15 PM 64.4 °F - 51.8 °F 64% 30.08 in 10.0 mi SSW 11.5 mph 20.7 mph N/A   Overcast
1:35 PM 64.4 °F - 53.6 °F 68% 30.07 in 10.0 mi SW 13.8 mph 23.0 mph N/A   Overcast
1:55 PM 64.4 °F - 53.6 °F 68% 30.07 in 10.0 mi SW 13.8 mph 19.6 mph N/A   Overcast
2:15 PM 62.6 °F - 51.8 °F 68% 30.07 in 10.0 mi SSW 17.3 mph 26.5 mph N/A   Overcast
2:35 PM 60.8 °F - 53.6 °F 77% 30.07 in 10.0 mi SW 12.7 mph 19.6 mph N/A   Overcast
2:55 PM 60.8 °F - 53.6 °F 77% 30.06 in 10.0 mi SSW 11.5 mph 16.1 mph N/A   Overcast
3:15 PM 60.8 °F - 53.6 °F 77% 30.06 in 10.0 mi SSW 10.4 mph 17.3 mph N/A   Overcast
3:35 PM 60.8 °F - 53.6 °F 77% 30.05 in 10.0 mi SSW 10.4 mph - N/A   Overcast
3:55 PM 60.8 °F - 53.6 °F 77% 30.05 in 10.0 mi SSW 11.5 mph 19.6 mph N/A   Overcast
4:15 PM 59.0 °F - 53.6 °F 82% 30.05 in 10.0 mi SSW 8.1 mph 21.9 mph N/A   Overcast
4:35 PM 59.0 °F - 53.6 °F 82% 30.05 in 10.0 mi SSW 9.2 mph - N/A   Overcast
4:55 PM 59.0 °F - 53.6 °F 82% 30.04 in 10.0 mi SSW 6.9 mph 16.1 mph N/A   Overcast
5:15 PM 59.0 °F - 53.6 °F 82% 30.04 in 10.0 mi SSW 8.1 mph - N/A   Overcast
5:35 PM 59.0 °F - 53.6 °F 82% 30.04 in 10.0 mi SSW 10.4 mph 17.3 mph N/A   Overcast
5:55 PM 60.8 °F - 53.6 °F 77% 30.04 in 10.0 mi SSW 12.7 mph 19.6 mph N/A   Overcast
6:15 PM 60.8 °F - 53.6 °F 77% 30.03 in 10.0 mi SSW 13.8 mph 19.6 mph N/A   Overcast
6:35 PM 60.8 °F - 53.6 °F 77% 30.02 in 10.0 mi SW 11.5 mph - N/A   Overcast
6:55 PM 60.8 °F - 53.6 °F 77% 30.02 in 10.0 mi SSW 12.7 mph 19.6 mph N/A   Overcast
7:15 PM 60.8 °F - 53.6 °F 77% 30.02 in 10.0 mi SSW 9.2 mph 18.4 mph N/A   Overcast
7:35 PM 60.8 °F - 53.6 °F 77% 30.02 in 10.0 mi SW 10.4 mph - N/A   Overcast
7:55 PM 60.8 °F - 53.6 °F 77% 30.02 in 10.0 mi SW 10.4 mph 17.3 mph N/A   Overcast
8:15 PM 59.0 °F - 53.6 °F 82% 30.02 in 10.0 mi SW 10.4 mph - N/A   Overcast
8:35 PM 57.2 °F - 55.4 °F 94% 30.05 in 8.0 mi NW 15.0 mph 21.9 mph N/A   Overcast
8:55 PM 53.6 °F - 51.8 °F 94% 30.06 in 10.0 mi NNW 6.9 mph - N/A   Overcast
9:15 PM 51.8 °F - 48.2 °F 88% 30.09 in 10.0 mi NW 17.3 mph 26.5 mph N/A   Overcast
9:35 PM 48.2 °F - 44.6 °F 87% 30.11 in 10.0 mi NNW 13.8 mph 23.0 mph N/A   Overcast
9:55 PM 46.4 °F 41.1 °F 42.8 °F 87% 30.12 in 9.0 mi NNW 11.5 mph 20.7 mph N/A   Overcast
10:15 PM 46.4 °F 43.5 °F 42.8 °F 87% 30.12 in 10.0 mi NNW 5.8 mph - N/A   Overcast
10:35 PM 44.6 °F 43.1 °F 42.8 °F 93% 30.11 in 10.0 mi North 3.5 mph - N/A   Overcast
10:55 PM 44.6 °F - 42.8 °F 93% 30.12 in 10.0 mi Calm Calm - N/A   Mostly Cloudy
11:15 PM 44.6 °F 42.2 °F 42.8 °F 93% 30.13 in 10.0 mi SW 4.6 mph - N/A   Overcast
11:35 PM 44.6 °F 40.7 °F 42.8 °F 93% 30.13 in 10.0 mi West 6.9 mph - N/A   Overcast
11:55 PM 44.6 °F 43.1 °F 42.8 °F 93% 30.14 in 10.0 mi West 3.5 mph - N/A   Overcast